Moron de la Frontera, Spain

10:04 AM CEST on August 24, 2017 (GMT +0200)
Moron Air Base

Weather History for LEMO - October, 2012

Change the Weather History Date:

Sunday, October 7, 2012

  Actual Average Record
Temperature  
Mean Temperature 74 °F -  
Max Temperature 89 °F 73 °F 95 °F (2004)
Min Temperature 60 °F 54 °F 50 °F (1998)
Cooling Degree Days 10    
Growing Degree Days 24 (Base 50)    
Moisture  
Dew Point 60 °F    
Average Humidity 63    
Maximum Humidity 94    
Minimum Humidity 31    
Precipitation  
Precipitation 0.00 in - - ()
Sea Level Pressure  
Sea Level Pressure 30.12 in    
Wind  
Wind Speed 3 mph ()    
Max Wind Speed 10 mph    
Max Gust Speed -    
Averages and records for this station are not official NWS values.
T = Trace of Precipitation, MM = Missing Value Source: Averaged Metar Reports

Daily Weather History Graph

Daily Weather History Graph

Search for Another Location

Airport or City:

Trip Planner

Search our weather history database for the weather conditions in past years. The results will help you decide how hot, cold, wet, or windy it might be!

Date:

Astronomy

Oct. 07, 2012 Rise Set
Actual Time 8:23 AM CEST 7:56 PM CEST
Civil Twilight 7:57 AM CEST 8:22 PM CEST
Nautical Twilight 7:27 AM CEST 8:52 PM CEST
Astronomical Twilight 6:56 AM CEST 9:22 PM CEST
Moon 12:07 AM CEST (10/7) 2:45 PM CEST (10/7)
Length of Visible Light 12h 25m
Length of Day
11h 33m
Waning Gibbous, 58% of the Moon is Illuminated
Oct 7
Waning Gibbous
Oct 8
Last Quarter
Oct 15
New
Oct 22
First Quarter
Oct 29
Full

Hourly Weather History & Observations

Time (CEST) Temp. Heat Index Dew Point Humidity Pressure Visibility Wind Dir Wind Speed Gust Speed Precip Events Conditions
12:00 AM 69.8 °F - 62.6 °F 78% 30.15 in - Calm Calm - N/A   Clear
1:00 AM 68.0 °F - 60.8 °F 78% 30.15 in - South 3.5 mph - N/A   Clear
2:00 AM 66.2 °F - 60.8 °F 83% 30.15 in - SSE 3.5 mph - N/A   Clear
3:00 AM 66.2 °F - 60.8 °F 83% 30.15 in - SSE 2.3 mph - N/A   Clear
4:00 AM 64.4 °F - 60.8 °F 88% 30.12 in - East 1.2 mph - N/A   Clear
5:00 AM 64.4 °F - 59.0 °F 83% 30.12 in - Variable 3.5 mph - N/A   Clear
6:00 AM 62.6 °F - 59.0 °F 88% 30.12 in - East 3.5 mph - N/A   Clear
8:00 AM 60.8 °F - 59.0 °F 94% 30.12 in - Calm Calm - N/A   Clear
9:00 AM 62.6 °F - 59.0 °F 88% 30.15 in - NNE 2.3 mph - N/A   Clear
10:00 AM 69.8 °F - 60.8 °F 73% 30.15 in - NNE 5.8 mph - N/A   Clear
11:00 AM 73.4 °F - 62.6 °F 69% 30.15 in - NNE 10.4 mph - N/A   Clear
12:00 PM 78.8 °F - 62.6 °F 57% 30.15 in - ENE 8.1 mph - N/A   Clear
1:00 PM 82.4 °F 83.4 °F 62.6 °F 51% 30.15 in - ENE 8.1 mph - N/A   Clear
2:00 PM 82.4 °F 82.9 °F 60.8 °F 48% 30.12 in - Variable 4.6 mph - N/A   Clear
3:00 PM 87.8 °F 87.6 °F 60.8 °F 40% 30.12 in - Variable 2.3 mph - N/A   Clear
4:00 PM 87.8 °F 87.1 °F 59.0 °F 38% 30.09 in - Variable 1.2 mph - N/A   Clear
5:00 PM 89.6 °F 88.9 °F 59.0 °F 36% 30.09 in - Variable 2.3 mph - N/A   Clear
6:00 PM 89.6 °F 87.7 °F 55.4 °F 31% 30.09 in - Variable 2.3 mph - N/A   Clear
7:00 PM 89.6 °F 88.1 °F 57.2 °F 33% 30.09 in - Calm Calm - N/A   Clear
8:00 PM 82.4 °F 82.0 °F 57.2 °F 42% 30.09 in - Variable 2.3 mph - N/A   Clear
9:00 PM 78.8 °F - 57.2 °F 47% 30.09 in - West 3.5 mph - N/A   Clear
10:00 PM 73.4 °F - 59.0 °F 61% 30.12 in - ESE 3.5 mph - N/A   Clear
11:00 PM 71.6 °F - 57.2 °F 60% 30.12 in - Variable 2.3 mph - N/A   Clear